GFSNIL_sfc_dewp_000.txt.gz
Dewpoint
29 26 24 24 22 19 18 17 15 14 13 13 14 15 15 18 18 16 18 15 16 18
28 26 24 21 18 18 17 14 12 12 12 13 14 15 15 17 16 16 17 17 17 17
22 20 18 16 16 14 12 11 11 12 13 14 14 15 15 16 17 16 17 17 16 16
17 15 13 12 12 11 11 11 12 13 14 14 15 15 15 15 15 17 17 17 18 18
13 11 11 11 11 11 11 13 13 14 15 15 16 15 14 15 17 17 17 18 19 20
12 11 11 12 13 13 13 13 14 15 15 16 16 15 14 16 18 18 18 19 19 20
12 12 13 14 14 14 13 13 15 16 16 16 15 14 14 20 20 19 18 19 20 20
15 15 16 16 15 14 14 15 16 16 15 15 13 11 21 22 21 19 18 19 19 20
17 17 17 14 14 14 15 16 16 15 15 14 12 23 25 24 22 19 19 19 20 21
18 16 15 13 13 14 14 15 15 14 14 14 14 23 25 26 22 20 20 21 21 21
16 14 13 12 13 13 14 14 14 14 14 13 13 24 24 26 21 21 21 21 21 21
15 13 12 12 13 14 14 14 13 13 13 13 15 23 25 24 21 21 21 21 21 22
13 12 12 13 13 14 13 13 14 14 15 19 15 23 25 24 22 21 21 22 23 27
12 13 13 13 13 12 13 14 14 15 15 16 18 19 25 26 22 21 21 20 22 23

GFSNIL_sfc_dewp_003.txt.gz
Dewpoint
26 26 24 23 21 18 18 17 16 15 15 16 17 18 18 20 20 19 20 18 18 18
25 25 24 21 20 19 18 14 14 15 15 16 17 17 17 18 17 18 19 19 19 18
25 24 22 19 18 16 14 13 14 15 15 16 16 16 16 16 17 17 19 18 18 18
22 20 17 15 13 12 12 13 14 14 15 15 15 14 14 15 17 18 18 19 20 19
18 15 14 12 12 11 12 13 14 15 16 15 14 13 13 17 18 18 18 19 20 20
13 12 11 11 12 13 13 14 15 16 15 14 14 12 13 17 19 19 19 19 19 19
12 12 12 13 13 13 14 16 16 15 14 14 13 12 15 20 20 20 20 20 19 19
14 15 15 15 14 15 17 16 15 14 14 13 13 11 21 23 22 21 20 20 19 20
17 16 16 14 16 17 17 16 15 14 13 13 11 22 25 24 22 21 20 20 20 21
16 15 15 14 16 16 15 14 13 13 13 13 14 23 24 25 21 21 21 22 22 21
15 13 13 14 14 14 14 13 12 13 13 14 14 23 24 25 22 21 22 23 22 22
14 13 14 14 13 13 12 12 13 13 14 14 17 23 24 24 21 21 21 22 22 23
13 14 14 13 12 12 13 13 13 14 15 19 16 22 24 23 21 21 20 21 22 25
14 13 13 12 12 12 13 13 14 15 16 16 18 18 24 25 21 21 21 21 21 22

GFSNIL_sfc_dewp_006.txt.gz
Dewpoint
34 35 28 28 26 24 22 20 20 18 17 16 17 19 20 22 22 21 21 21 21 20
35 34 30 27 26 24 21 17 17 17 16 17 17 18 19 19 18 19 20 20 21 20
33 30 28 25 24 22 17 15 16 16 16 17 17 17 17 17 18 17 20 19 20 19
26 25 23 22 20 18 15 15 14 14 15 16 16 14 14 16 17 18 19 20 21 20
25 23 21 18 16 14 13 13 14 14 16 15 14 13 13 16 18 19 19 19 21 20
22 20 17 15 13 14 13 14 15 16 15 14 15 13 12 16 18 19 19 19 19 16
20 18 15 14 14 14 15 16 16 15 15 15 13 13 14 19 20 20 20 20 20 17
17 16 15 15 15 16 17 16 15 14 14 14 14 11 21 22 22 21 20 19 18 18
18 17 17 16 17 18 17 16 15 14 14 15 11 20 24 25 21 20 19 18 17 19
17 17 17 17 17 17 16 15 14 13 13 13 13 21 24 25 21 20 19 21 21 20
16 15 16 15 15 14 13 13 13 13 13 13 12 22 24 26 21 19 19 21 20 19
14 15 15 15 14 13 12 13 12 13 12 12 12 19 24 24 19 18 19 19 19 21
13 15 15 15 12 13 13 13 12 12 12 14 12 18 23 23 19 18 17 18 19 23
14 13 12 12 11 12 12 12 10 10 11 12 14 15 23 24 21 19 18 18 18 21

GFSNIL_sfc_dewp_009.txt.gz
Dewpoint
45 44 38 31 28 28 26 26 25 24 23 22 21 22 23 24 25 22 24 25 25 24
43 39 34 30 30 28 27 24 22 22 20 20 19 20 21 21 19 20 22 23 24 24
38 32 31 29 28 27 24 21 21 20 20 19 19 18 19 19 18 18 22 22 21 22
34 31 28 28 25 23 20 20 19 18 18 17 17 16 16 16 18 19 20 21 23 22
31 28 28 25 22 19 18 17 17 16 16 16 16 14 13 15 17 19 19 20 24 23
27 27 26 21 19 18 17 16 16 17 17 15 16 14 13 14 16 18 19 20 19 19
26 24 22 19 18 17 17 17 18 17 16 15 14 14 14 17 19 20 21 21 21 19
24 23 19 19 18 18 19 17 17 16 15 15 14 11 20 22 22 21 20 20 18 19
23 20 21 19 20 20 18 17 16 15 14 15 11 21 24 25 22 20 19 18 17 19
20 20 21 20 19 19 17 16 15 13 13 12 13 20 24 26 22 20 20 22 22 21
20 20 20 19 18 16 15 14 13 12 12 14 14 20 23 25 21 19 19 22 20 19
19 18 18 17 15 14 13 12 11 12 13 12 11 17 21 24 20 18 18 18 19 19
17 18 17 16 13 13 13 12 13 13 11 11 11 15 20 23 19 18 18 18 18 23
16 15 14 13 12 11 12 14 10 10 9 10 12 14 19 23 21 20 20 19 20 21

GFSNIL_sfc_dewp_012.txt.gz
Dewpoint
44 38 36 37 33 29 27 27 29 28 26 25 25 25 26 26 26 22 24 21 23 25
42 41 37 37 34 28 26 26 27 24 22 22 22 22 22 24 22 20 22 22 23 24
42 39 36 34 32 28 27 23 23 22 21 21 20 20 21 20 18 18 21 23 20 22
37 35 33 31 26 24 23 21 21 21 20 19 19 18 17 17 18 19 20 21 22 22
33 31 32 26 22 21 20 20 20 19 19 19 17 14 14 15 17 18 19 20 22 23
28 26 25 23 22 21 18 18 18 19 18 17 18 15 14 14 16 18 19 20 20 20
28 26 22 22 20 22 18 19 19 18 18 18 17 15 16 19 20 21 22 23 22 20
26 24 21 21 25 24 20 19 18 17 17 17 15 17 23 24 24 22 21 20 19 20
22 21 22 21 20 20 19 18 18 17 16 16 12 24 25 25 24 23 20 19 19 20
29 29 24 20 19 19 17 17 16 14 13 13 21 24 22 24 23 22 21 21 21 21
31 24 20 19 18 16 16 15 14 13 13 15 18 22 22 24 22 20 20 20 20 19
28 20 18 16 15 15 13 13 13 14 13 12 14 19 19 23 21 20 19 19 19 20
19 18 16 15 14 14 14 13 14 13 11 16 12 16 18 21 21 20 19 20 20 25
16 14 14 13 13 13 14 13 10 8 9 9 12 13 17 20 21 21 21 21 21 21

GFSNIL_sfc_dewp_015.txt.gz
Dewpoint
48 45 43 41 37 35 33 34 29 29 29 29 28 27 26 27 26 23 24 22 24 25
43 42 39 39 36 38 33 33 28 27 26 27 28 25 25 25 19 20 23 22 23 24
43 39 38 35 33 34 33 29 27 27 26 25 23 22 23 20 19 19 22 23 21 21
42 37 35 34 32 34 32 31 27 23 22 25 21 19 20 19 19 19 20 21 22 22
38 35 34 33 33 34 31 28 28 23 23 20 19 16 16 16 17 18 19 19 21 22
35 34 33 32 32 28 25 26 25 22 19 18 18 16 15 15 17 18 19 20 20 20
33 30 30 30 26 23 24 25 20 19 19 19 17 17 20 22 22 22 22 22 22 21
27 26 25 27 26 26 24 19 18 17 17 17 18 19 23 25 24 23 22 21 20 20
25 26 28 29 31 29 22 18 17 17 17 15 19 28 28 26 24 23 21 20 20 20
28 29 29 28 26 21 17 16 16 15 15 19 24 27 26 26 23 22 21 21 21 21
31 30 29 28 25 23 18 16 14 14 15 19 23 26 24 26 21 21 20 20 19 19
35 34 34 32 28 24 23 16 14 15 14 18 22 21 22 23 21 20 20 20 21 22
32 25 21 20 14 15 14 14 15 14 12 18 11 17 17 20 21 20 20 21 22 26
25 16 14 13 14 14 14 12 9 9 10 10 13 13 16 18 20 20 21 22 22 22

GFSNIL_sfc_dewp_018.txt.gz
Dewpoint
54 51 50 47 45 41 39 39 39 34 31 30 30 30 27 27 27 23 24 22 24 25
49 49 47 46 43 42 42 40 38 33 32 30 29 28 26 26 22 22 23 22 24 25
49 49 48 45 43 40 40 38 34 31 31 31 27 25 26 24 22 21 22 24 22 22
47 45 45 44 41 39 37 34 29 29 30 27 25 23 22 21 20 19 20 22 22 22
44 43 42 40 38 37 33 31 29 29 27 25 26 25 19 19 19 19 20 20 23 23
43 43 41 38 35 32 29 29 29 28 28 26 23 17 17 17 18 19 19 20 20 20
41 40 37 34 33 31 28 29 27 27 25 25 22 17 19 21 22 22 22 22 21 21
36 35 32 30 29 28 28 26 23 24 21 21 22 22 24 24 23 22 21 21 20 20
28 29 28 28 28 28 28 29 28 27 27 27 28 31 30 26 23 22 21 21 20 20
29 29 28 27 27 28 30 30 30 26 20 24 27 29 28 27 22 21 20 20 20 19
31 31 32 31 31 30 29 25 21 20 21 24 25 28 27 26 21 20 20 20 20 19
33 33 33 33 32 32 32 31 29 27 22 25 24 24 24 23 20 20 20 20 21 23
35 34 33 33 33 32 31 25 18 15 14 18 15 21 19 23 20 19 20 21 22 26
32 31 30 25 18 15 14 12 11 10 10 11 12 13 17 18 20 19 20 21 21 22

GFSNIL_sfc_dewp_021.txt.gz
Dewpoint
58 56 55 53 52 50 46 44 41 41 39 37 32 32 31 30 27 25 25 23 24 25
55 52 52 52 51 50 47 43 42 39 37 34 32 32 32 29 25 24 25 24 24 26
52 51 50 48 46 44 43 41 39 36 35 34 32 31 30 28 25 26 27 27 24 23
50 49 48 46 44 42 42 40 38 36 33 30 29 28 28 25 23 22 23 24 23 22
49 47 46 46 43 42 41 39 36 32 30 28 28 27 28 29 30 28 23 22 24 23
46 45 44 43 41 42 39 36 34 30 28 29 30 31 30 28 26 21 20 20 21 21
44 43 41 41 41 39 36 33 30 29 28 28 29 29 30 29 26 24 22 23 22 22
42 41 40 38 36 35 34 31 27 27 28 29 31 31 31 29 26 22 21 21 20 22
35 34 34 33 34 31 28 29 29 30 31 32 33 35 33 28 24 22 21 20 20 20
33 33 32 32 34 32 32 32 32 32 32 33 35 35 33 29 23 22 21 21 20 19
32 33 34 33 32 32 32 31 30 31 33 33 34 35 33 28 22 20 20 21 20 20
35 34 34 33 32 32 32 32 32 32 32 32 33 33 31 24 20 19 19 20 21 22
35 34 33 33 33 34 34 32 32 31 31 31 24 25 22 24 20 19 19 20 21 25
34 34 34 33 33 32 30 24 17 13 13 12 14 14 19 19 20 19 20 21 21 22

GFSNIL_sfc_dewp_024.txt.gz
Dewpoint
60 58 56 55 56 54 52 50 48 45 44 43 40 38 36 36 35 32 29 24 25 27
59 57 54 53 53 53 52 50 46 46 44 41 38 36 35 35 33 29 27 25 26 26
55 58 53 50 51 51 50 47 45 44 42 40 38 35 33 30 28 28 31 32 29 27
51 51 50 49 48 46 45 44 44 42 40 39 36 31 30 28 27 26 26 27 27 26
49 48 47 46 44 43 42 41 40 40 38 35 32 29 27 26 28 27 28 29 30 28
47 46 46 46 43 43 41 40 38 37 34 31 30 28 30 30 33 33 33 32 31 27
47 46 46 43 43 41 38 36 34 32 31 31 30 31 30 29 29 29 28 27 25 23
44 42 42 40 38 35 35 33 33 33 34 35 34 32 33 33 32 31 30 28 25 25
37 37 37 36 34 33 33 33 33 34 33 35 36 38 35 30 28 27 27 28 28 26
33 32 34 34 34 33 34 35 35 36 35 35 36 38 37 34 31 30 29 28 23 20
34 34 35 35 35 35 35 35 34 34 35 36 37 37 36 33 29 25 22 23 21 23
35 34 34 33 33 33 33 33 33 33 33 32 33 37 34 29 25 21 20 21 21 23
35 34 33 33 33 34 34 33 32 32 32 35 32 34 33 28 20 19 19 20 21 24
35 34 33 32 33 32 31 29 28 28 24 23 19 20 22 26 20 19 21 21 21 22

GFSNIL_sfc_dewp_027.txt.gz
Dewpoint
57 60 58 59 59 58 56 56 55 53 51 50 48 46 44 43 42 40 38 32 30 30
57 58 58 57 56 58 56 55 54 51 49 49 48 46 43 42 40 36 32 30 29 28
50 56 57 55 55 55 55 53 50 49 48 47 45 43 42 39 34 30 32 33 32 31
46 49 53 55 53 53 52 49 48 47 45 44 42 41 40 38 30 28 30 31 31 29
47 48 50 51 52 50 49 46 45 44 42 41 39 38 36 32 30 29 30 32 33 32
48 49 49 49 47 46 44 44 42 41 39 37 35 33 31 30 32 33 34 34 34 32
46 47 48 47 44 43 42 40 39 36 33 31 31 31 32 33 32 31 31 29 29 29
42 42 41 39 38 37 35 34 33 33 33 33 33 33 34 33 33 33 32 32 32 32
36 37 36 35 35 35 36 36 36 35 35 36 38 40 39 35 33 32 32 30 31 31
35 35 36 36 36 35 35 36 36 37 37 37 38 39 37 35 32 32 31 31 29 28
35 35 35 35 35 36 36 36 36 36 37 37 37 38 37 34 30 29 28 28 28 28
34 34 34 33 34 34 33 33 33 33 33 33 34 37 34 30 28 27 27 25 22 24
34 34 33 33 33 33 33 32 32 32 33 36 34 36 32 26 20 22 22 22 21 23
35 33 33 32 32 32 31 30 28 28 28 25 25 29 31 25 20 20 21 21 21 21

GFSNIL_sfc_dewp_030.txt.gz
Dewpoint
47 46 53 57 58 59 59 59 59 58 58 58 57 56 54 52 50 46 44 42 38 35
43 51 55 55 57 58 58 59 59 58 57 56 56 55 53 53 50 48 47 44 38 34
45 46 49 54 54 54 55 56 56 56 55 54 53 52 51 49 48 45 43 40 37 35
45 46 47 47 50 51 52 54 54 53 52 51 49 48 47 46 43 39 37 38 37 34
47 48 49 49 49 51 51 51 51 50 49 48 47 45 44 40 39 38 37 36 35 34
47 48 49 49 50 49 49 48 47 47 45 44 42 41 39 36 35 35 36 36 35 35
45 46 47 47 46 46 45 44 43 42 39 37 36 33 33 34 35 35 35 34 33 32
39 40 40 39 38 37 36 35 34 34 34 34 34 34 34 34 33 32 32 33 33 34
36 37 37 37 37 37 37 36 36 36 36 36 36 38 37 35 34 34 33 32 32 33
36 35 36 36 36 36 37 38 38 38 39 38 39 40 39 37 34 33 32 32 31 31
35 35 35 35 35 36 37 37 37 37 37 38 39 39 37 34 31 30 29 28 28 27
34 34 34 33 33 34 33 33 33 33 33 33 33 36 35 32 30 29 28 28 26 24
35 34 34 34 33 34 33 33 34 32 33 35 32 35 32 27 24 23 23 23 22 23
35 34 34 34 34 33 32 33 32 31 30 31 32 30 27 24 21 21 20 18 18 20

GFSNIL_sfc_dewp_033.txt.gz
Dewpoint
43 46 46 46 53 56 57 57 59 60 60 60 60 59 59 58 56 53 52 51 48 44
42 43 46 51 53 54 55 56 56 59 59 59 58 58 58 56 54 53 52 49 47 45
44 44 45 45 48 51 51 52 54 56 57 58 57 57 56 55 53 52 51 49 43 40
44 45 46 46 45 45 49 50 52 53 54 54 54 53 52 51 50 48 43 42 39 38
44 46 47 47 48 49 50 50 51 50 51 50 50 49 48 45 44 41 40 40 38 37
44 45 46 47 48 48 48 48 48 48 47 46 46 44 44 41 41 40 39 38 37 36
40 41 42 43 43 44 44 44 44 42 41 40 39 36 36 37 37 36 36 36 36 36
37 38 38 38 38 38 37 36 35 35 35 35 35 35 36 36 34 34 34 35 35 36
36 36 37 37 37 37 38 38 37 37 36 37 36 38 37 36 35 34 34 33 33 35
36 36 36 37 37 37 38 38 39 39 39 38 38 39 38 37 34 33 33 32 32 33
35 35 35 35 35 35 35 35 35 35 35 36 37 38 37 35 31 31 31 32 31 30
35 35 34 34 34 34 33 33 33 33 33 33 34 37 36 33 31 30 30 29 29 25
35 35 34 34 33 34 34 33 33 33 33 33 33 33 33 32 30 29 25 23 22 22
35 35 35 34 33 33 32 32 32 32 32 32 31 28 28 25 22 21 19 18 19 22

GFSNIL_sfc_dewp_036.txt.gz
Dewpoint
42 44 46 48 48 50 55 56 58 61 61 61 61 61 60 59 58 55 53 52 51 49
44 44 45 45 46 53 54 55 55 55 58 59 60 60 59 58 58 56 54 53 51 47
43 45 45 46 45 45 49 50 53 53 54 56 57 57 56 56 55 53 52 50 48 44
43 45 47 47 47 48 49 50 51 51 51 52 53 53 52 51 51 48 45 45 44 41
42 43 44 46 48 48 49 49 50 50 49 49 48 48 48 45 45 43 42 40 40 39
39 40 40 40 39 41 44 46 45 44 43 43 43 44 42 41 41 41 40 40 39 38
38 39 39 39 39 37 36 36 36 35 35 36 36 37 37 38 37 37 37 37 37 36
37 38 38 38 38 38 37 36 36 36 36 36 36 37 36 36 36 35 35 35 35 35
36 37 37 38 38 38 39 39 38 38 38 38 38 39 38 36 34 34 34 33 33 34
35 35 36 36 36 37 36 37 37 38 38 38 38 39 38 36 33 33 33 33 33 34
35 35 35 35 35 35 35 34 34 34 35 36 37 38 37 35 32 31 32 32 31 30
35 35 34 33 34 34 33 33 32 33 33 33 34 36 35 32 31 30 30 29 29 28
35 35 34 34 34 33 32 31 32 32 32 32 30 32 31 31 30 26 25 25 24 24
35 35 34 33 32 32 31 27 22 25 30 30 28 27 28 26 23 20 19 19 20 24

GFSNIL_sfc_dewp_039.txt.gz
Dewpoint
43 44 45 45 45 47 51 55 56 60 60 60 60 59 60 59 58 56 55 54 51 50
41 43 45 45 45 46 48 53 54 54 54 55 57 57 58 58 57 57 55 54 53 51
43 45 46 47 47 48 49 51 52 52 52 52 53 55 54 54 53 53 51 51 50 46
41 43 44 44 45 47 49 50 50 50 50 50 50 50 49 48 48 47 46 46 46 43
39 40 40 39 38 38 43 44 45 45 45 44 46 45 45 44 43 42 43 42 41 39
38 38 39 39 38 37 36 37 36 36 36 37 39 40 41 41 41 40 40 40 39 38
38 38 38 38 38 37 36 36 35 35 36 36 37 37 38 38 37 37 37 37 37 37
37 37 38 38 38 38 38 37 37 37 37 38 38 37 36 36 36 35 35 36 36 36
36 36 37 38 38 38 38 38 38 37 38 38 38 39 38 36 34 34 34 33 34 35
35 36 36 36 36 36 36 36 36 36 37 37 38 39 37 36 33 33 33 33 34 33
35 35 36 35 35 35 34 34 34 34 35 36 37 38 36 35 32 31 31 31 31 30
35 35 34 34 33 34 32 31 32 33 33 33 34 35 34 32 29 26 26 28 27 27
35 35 34 33 33 33 33 32 32 31 26 31 23 30 31 28 25 22 24 24 22 25
35 34 33 33 32 32 23 21 22 28 29 26 26 27 29 26 22 19 19 19 20 24

GFSNIL_sfc_dewp_042.txt.gz
Dewpoint
42 44 45 45 45 45 46 52 54 56 57 57 57 58 58 56 56 57 57 56 53 52
44 45 46 47 47 48 48 51 52 52 52 52 53 55 55 54 54 56 55 55 54 52
42 42 44 45 44 47 49 50 50 50 50 50 51 52 51 51 50 50 50 51 51 48
40 40 40 39 38 41 44 46 47 47 47 47 46 46 46 46 45 47 47 45 46 43
39 39 39 38 37 38 38 37 38 39 40 42 43 42 42 41 41 43 42 41 41 40
38 38 38 38 37 36 36 36 36 36 37 37 38 39 39 39 39 39 39 39 39 38
37 38 38 38 38 37 36 36 36 37 37 37 37 37 37 36 35 35 37 37 37 37
37 38 38 38 39 38 38 37 37 37 37 37 37 37 35 35 35 35 35 36 37 37
36 37 37 37 37 37 37 37 37 37 37 36 36 38 38 35 34 34 34 34 34 35
36 36 36 36 36 35 35 35 36 36 36 36 37 37 37 36 32 32 31 32 32 32
35 36 36 36 35 34 34 34 34 34 35 36 37 37 36 34 31 29 26 27 26 27
35 35 35 34 33 33 32 32 33 33 33 33 33 32 32 28 22 23 23 26 25 25
35 35 34 33 33 33 32 32 31 24 24 29 19 29 29 26 24 21 22 20 22 28
35 34 33 33 30 24 20 26 29 29 28 23 26 26 27 27 22 19 19 19 20 23

GFSNIL_sfc_dewp_045.txt.gz
Dewpoint
44 45 46 46 46 46 46 47 52 54 54 54 55 56 56 55 54 54 56 55 53 52
42 43 44 45 46 48 48 51 50 50 50 51 52 53 53 53 53 54 54 54 53 53
40 41 40 40 41 45 46 47 48 48 48 48 48 48 47 47 48 49 48 48 48 46
39 40 39 38 38 39 39 40 43 44 45 44 44 44 43 43 44 46 44 43 43 41
38 38 39 38 37 37 37 37 37 38 39 40 41 40 40 40 40 40 40 40 41 40
37 37 38 38 36 36 36 36 36 37 37 37 37 37 37 37 37 37 37 37 36 36
37 37 38 39 38 37 37 37 37 37 37 36 36 36 35 35 34 34 35 36 35 35
37 38 38 38 38 38 38 37 36 36 37 37 37 36 34 35 35 36 35 35 36 38
37 37 37 37 37 36 36 36 36 35 36 36 37 38 38 36 34 34 34 34 34 35
36 36 36 36 35 35 35 35 36 36 37 37 36 38 37 35 31 28 28 28 28 30
36 36 36 35 34 34 34 34 34 34 35 35 36 36 35 33 26 24 24 25 23 24
36 36 35 34 33 33 33 33 32 32 30 24 25 31 30 26 21 22 21 22 24 23
36 35 34 33 33 32 32 31 26 21 20 28 18 29 28 24 24 19 20 19 21 28
35 34 33 33 32 30 29 29 29 23 19 21 26 25 27 28 23 20 20 20 21 23

GFSNIL_sfc_dewp_048.txt.gz
Dewpoint
44 45 46 46 46 47 47 49 49 51 51 52 53 54 56 56 55 54 55 54 54 53
41 42 43 43 45 47 47 49 48 49 49 49 50 51 53 53 52 52 51 50 51 50
40 40 40 39 40 42 42 44 45 46 46 46 46 46 46 48 49 48 48 47 46 45
39 39 39 38 38 38 38 38 40 42 42 42 42 42 42 42 46 45 44 43 43 41
38 38 38 37 37 37 36 37 37 38 39 39 39 38 39 38 38 39 38 38 38 37
36 36 37 37 36 36 37 37 37 37 36 36 36 36 36 35 35 35 35 35 35 35
36 37 38 38 38 38 37 37 36 36 36 36 35 35 34 35 35 36 36 37 37 36
38 39 38 38 37 37 37 37 36 37 37 36 37 36 35 35 36 36 36 35 36 37
37 37 37 37 36 36 36 36 36 36 36 36 36 38 37 35 34 34 33 32 32 34
36 36 36 36 36 35 35 36 36 37 37 37 36 37 36 34 29 27 25 26 27 29
36 36 35 35 34 34 34 34 34 33 33 32 34 35 34 31 24 22 21 24 21 23
36 36 35 34 33 33 33 33 32 27 24 22 24 30 29 25 19 20 20 21 24 25
36 35 34 33 33 33 32 31 25 21 18 28 18 28 27 24 23 18 18 19 20 26
35 34 34 33 32 31 29 24 20 19 18 20 25 24 26 28 23 20 20 20 22 23

GFSNIL_sfc_dewp_051.txt.gz
Dewpoint
44 45 46 47 47 48 49 50 51 52 52 53 54 56 57 57 57 58 57 55 55 55
42 42 43 43 45 47 47 48 49 49 50 50 51 53 54 54 53 52 52 53 53 50
40 41 41 40 41 41 41 43 45 46 46 46 47 48 50 50 50 49 49 49 47 46
39 40 40 39 38 39 39 39 40 42 43 42 43 44 46 46 47 46 45 44 44 43
39 39 39 38 37 37 37 38 38 39 39 39 39 40 41 40 40 40 40 40 40 39
38 38 38 37 37 37 38 38 37 37 37 37 37 37 37 37 37 37 37 37 37 37
38 38 39 38 38 38 37 37 37 37 36 36 36 36 37 37 37 37 37 38 38 37
38 39 39 38 38 37 37 37 37 37 37 37 37 36 36 36 36 36 36 36 37 38
38 38 38 37 37 36 36 37 36 36 37 37 37 38 38 36 35 34 34 33 33 34
37 37 36 36 36 36 36 37 37 37 37 37 36 37 36 34 30 29 29 29 30 29
37 36 36 35 35 35 35 35 34 33 33 34 34 35 33 30 27 27 27 26 26 27
36 36 35 35 34 34 34 33 32 29 29 30 31 29 29 26 25 25 24 25 26 26
37 35 34 34 34 34 33 32 29 28 27 30 28 28 26 25 21 21 18 19 21 27
36 35 34 34 33 33 32 28 27 27 25 25 27 26 29 28 21 20 19 20 20 22

GFSNIL_sfc_dewp_054.txt.gz
Dewpoint
44 45 46 46 47 47 48 49 51 52 53 53 54 56 58 59 59 58 58 58 57 56
43 43 44 44 46 48 48 47 49 51 51 51 52 53 54 55 54 54 54 54 55 53
41 42 43 43 44 44 44 45 46 48 48 48 49 50 51 51 51 50 50 50 49 49
40 41 41 41 41 42 42 42 43 44 45 45 45 47 49 48 48 47 46 46 47 45
39 40 40 40 40 40 40 40 41 41 42 42 42 43 44 44 44 44 43 43 44 42
38 39 40 39 39 39 39 40 39 39 40 40 40 40 40 40 40 40 40 40 40 40
38 39 40 39 39 39 39 38 38 38 38 38 38 39 39 39 39 39 39 39 38 38
39 40 40 39 38 38 37 37 37 38 38 38 37 38 38 38 38 37 38 38 38 39
39 39 39 38 38 37 37 37 37 38 37 37 37 39 39 38 37 36 36 36 35 35
38 38 38 37 37 37 37 37 37 37 37 37 37 37 37 35 34 34 34 34 34 31
38 37 37 37 36 37 37 37 37 36 36 36 35 35 33 31 30 30 29 28 28 29
38 37 37 37 36 36 36 35 35 35 34 35 36 31 29 28 29 30 29 26 26 25
37 36 36 36 36 36 35 34 33 33 33 31 34 28 27 27 21 21 17 18 20 27
37 37 36 36 35 35 35 33 33 32 31 30 28 29 29 25 19 17 16 17 17 19

GFSNIL_sfc_dewp_057.txt.gz
Dewpoint
45 45 45 46 46 46 46 48 49 50 51 52 53 55 57 59 59 58 59 59 57 57
43 44 44 44 45 46 47 47 48 50 51 51 52 53 54 55 54 54 54 54 54 53
42 42 43 43 43 44 44 45 46 48 49 49 49 50 52 52 51 51 51 51 51 50
41 41 41 41 41 42 42 42 43 44 46 46 46 47 49 49 48 48 48 48 47 46
40 40 40 40 40 40 40 41 41 42 43 43 43 44 46 46 46 46 45 45 45 44
39 39 39 40 40 40 40 40 40 40 41 41 41 41 42 42 42 42 42 42 41 41
38 39 39 40 40 39 39 39 39 39 39 39 39 39 40 40 40 40 39 39 39 39
39 39 40 40 39 39 38 38 38 38 38 38 38 38 39 39 39 39 39 39 39 40
39 39 40 39 39 38 38 37 38 38 38 38 37 39 39 38 38 38 37 36 37 37
38 39 39 38 38 38 37 38 38 38 37 37 36 38 37 37 37 37 37 37 36 33
38 38 38 38 38 38 38 38 38 38 37 36 36 35 34 32 33 32 31 31 31 31
38 38 38 38 38 38 37 37 36 37 37 37 36 33 30 30 32 32 30 27 26 26
38 38 37 38 38 37 36 35 34 34 35 33 35 29 27 28 26 24 19 20 23 27
38 38 38 38 37 36 35 34 35 33 33 32 30 26 27 25 20 18 17 18 19 21

GFSNIL_sfc_dewp_060.txt.gz
Dewpoint
46 47 46 46 46 46 47 48 49 50 51 52 52 53 55 56 57 57 56 56 55 56
44 44 45 44 45 46 47 46 46 48 50 51 51 51 52 54 54 54 54 54 54 53
42 42 43 43 43 43 44 44 45 46 48 48 48 49 51 52 52 51 51 51 51 50
41 41 41 41 41 42 42 42 43 44 45 45 45 46 49 49 49 49 48 48 48 47
41 41 41 40 40 40 40 41 41 41 42 43 43 43 44 46 46 46 45 45 45 43
40 40 39 40 40 40 40 40 40 40 40 40 41 40 40 42 42 42 41 41 42 41
39 39 39 40 40 40 39 39 38 38 39 39 39 39 40 40 39 39 39 39 39 39
38 39 40 40 39 39 38 38 38 38 39 39 39 39 39 40 40 39 39 39 39 38
39 39 40 39 39 38 38 37 38 38 38 38 37 39 40 39 39 39 38 37 37 37
39 39 39 39 38 38 36 37 38 38 38 37 38 39 39 39 37 37 36 36 35 32
39 38 39 38 38 38 36 38 38 38 37 37 36 36 36 35 31 29 29 30 30 31
38 38 38 38 38 38 38 37 35 37 36 35 35 34 32 31 26 27 26 26 27 26
38 38 37 38 38 37 37 35 35 34 34 34 30 31 28 28 27 25 23 22 26 27
38 38 38 38 37 35 34 34 34 33 30 30 30 28 28 25 19 18 16 18 19 25

GFSNIL_sfc_dewp_063.txt.gz
Dewpoint
46 46 47 47 46 46 47 48 49 50 50 51 52 52 54 54 54 54 55 55 56 56
45 45 45 45 46 46 47 46 46 48 49 50 50 51 51 53 53 53 53 54 54 53
44 44 44 43 44 44 44 44 45 45 47 47 48 48 50 51 52 52 51 51 51 50
42 42 42 42 42 42 43 43 43 44 44 44 44 45 45 50 49 49 49 48 49 47
41 41 41 41 41 41 40 41 41 41 42 42 42 43 43 47 47 46 46 46 46 44
40 40 40 40 40 40 40 40 40 40 40 40 40 40 40 43 43 42 42 43 43 42
39 39 39 40 39 40 40 39 39 38 39 39 39 39 40 40 39 39 39 39 39 39
39 39 40 40 39 39 38 38 38 38 39 39 39 39 40 40 40 39 39 39 38 39
39 39 40 39 38 38 37 37 37 37 38 38 37 40 41 40 39 39 38 38 38 39
39 39 39 39 38 37 35 35 36 37 38 37 39 40 41 40 38 38 37 36 35 33
39 39 38 38 38 38 36 35 36 38 38 37 37 38 38 38 35 34 34 34 32 29
39 38 37 37 38 38 38 38 36 38 36 36 36 35 35 31 27 27 26 27 26 29
38 38 37 37 38 38 38 36 36 34 35 36 34 35 32 29 27 26 25 25 26 30
38 37 37 37 36 36 35 35 34 34 33 32 30 29 30 29 23 21 19 19 20 25

GFSNIL_sfc_dewp_066.txt.gz
Dewpoint
55 52 51 51 49 48 47 49 50 50 50 51 52 52 52 52 53 53 53 52 53 54
50 51 50 49 47 47 48 48 47 48 49 50 50 50 50 51 51 51 50 51 52 54
44 45 45 45 45 46 46 46 46 46 47 48 48 48 48 49 51 52 51 51 51 51
42 43 43 42 44 44 44 44 44 44 45 45 45 45 45 46 50 49 50 49 50 48
42 42 41 41 42 42 41 42 42 42 42 42 43 42 42 43 47 47 47 47 47 45
41 41 40 40 40 40 40 41 40 40 40 41 41 40 40 42 44 44 44 44 45 43
40 40 40 40 40 40 40 39 39 39 39 40 39 39 39 40 39 39 40 40 40 41
39 39 39 40 39 39 39 38 38 38 39 39 38 39 38 40 40 39 39 39 39 40
39 39 39 39 38 37 37 36 36 37 37 37 37 39 41 40 40 39 39 38 39 40
39 39 39 38 37 36 35 35 35 35 36 36 37 40 41 41 39 38 37 37 36 34
39 38 38 37 37 35 34 34 34 35 36 36 38 39 40 39 37 36 35 35 34 31
39 38 38 37 36 36 37 37 36 38 37 36 37 38 37 34 33 32 31 30 31 28
39 38 37 36 35 36 38 37 37 34 36 36 35 37 36 30 26 26 25 25 27 32
38 37 36 35 35 36 36 36 35 35 34 34 34 33 35 32 26 24 24 23 25 26

GFSNIL_sfc_dewp_069.txt.gz
Dewpoint
58 56 56 56 55 53 52 51 52 51 50 51 51 52 51 52 52 53 52 51 51 52
52 53 53 54 53 51 52 52 50 49 49 50 50 50 50 50 50 50 50 49 50 50
45 46 47 48 49 48 48 47 47 47 47 48 48 48 48 48 50 50 50 49 49 49
43 43 43 43 44 45 45 45 44 44 45 45 45 44 44 44 46 47 48 48 49 50
42 42 42 42 43 43 43 43 42 43 42 42 42 42 41 42 43 45 46 47 47 47
41 41 41 41 41 42 41 41 41 41 41 41 41 40 40 40 42 43 44 45 46 45
41 40 40 40 40 40 40 40 40 39 40 40 39 39 38 39 38 38 39 40 42 43
40 40 40 39 40 39 39 38 38 37 38 38 38 38 37 38 38 38 39 39 40 41
40 39 39 39 38 38 37 36 36 36 37 36 38 39 40 40 38 40 39 38 40 41
39 38 38 38 37 36 35 35 35 35 36 35 36 40 41 42 40 39 38 37 37 36
39 38 38 37 36 35 34 34 34 34 35 35 36 40 40 40 38 37 36 36 35 33
39 38 37 36 36 35 34 34 33 36 38 37 34 39 39 36 34 34 34 34 32 30
38 38 37 36 35 34 34 35 36 35 37 37 34 38 38 34 31 31 29 27 27 33
38 38 37 35 34 34 34 35 35 35 34 35 36 35 38 35 28 28 26 25 25 27

GFSNIL_sfc_dewp_072.txt.gz
Dewpoint
56 57 57 58 57 57 56 56 55 54 54 52 51 52 52 52 51 51 51 52 53 53
51 53 53 54 54 55 56 55 54 53 51 50 50 50 50 50 50 50 50 50 49 50
46 49 50 50 51 52 52 51 50 48 48 49 48 48 48 48 48 49 49 49 49 49
44 44 44 45 45 46 46 46 46 46 46 46 45 45 44 44 45 45 47 47 47 48
43 43 43 43 43 45 44 44 44 44 43 43 43 42 42 42 42 42 43 45 45 46
42 41 41 41 42 43 42 42 42 41 41 41 41 40 40 40 40 40 41 42 43 46
41 41 40 41 41 41 41 40 40 40 40 40 39 39 38 38 37 37 38 39 40 43
41 40 40 40 40 39 39 39 38 38 38 38 38 38 37 37 37 37 37 37 39 41
40 39 39 39 38 38 37 37 36 36 36 36 38 40 40 40 37 37 37 38 39 41
39 39 38 38 37 36 35 35 35 35 35 35 35 39 41 41 40 37 38 38 38 38
39 38 38 37 36 35 34 34 34 34 35 35 36 40 40 42 38 35 37 37 37 36
38 37 37 36 35 34 34 33 32 34 34 34 36 39 39 37 35 35 35 35 34 32
38 37 37 37 35 34 34 34 35 34 34 37 36 39 40 37 34 33 33 31 30 35
37 37 37 35 34 34 34 35 35 35 34 35 37 36 39 39 30 31 30 29 27 27

GFSNIL_sfc_dewp_075.txt.gz
Dewpoint
57 58 59 59 59 59 58 58 57 56 56 55 54 54 54 53 54 54 54 53 53 53
51 54 55 56 57 57 57 57 57 57 56 53 53 53 52 52 51 52 53 53 52 52
45 48 51 53 54 54 55 55 54 52 51 51 50 50 50 49 49 50 51 51 51 51
44 44 45 47 49 50 49 50 49 49 48 47 47 46 46 46 46 46 48 49 50 50
43 43 44 44 45 46 46 47 46 46 45 44 44 44 43 43 43 43 44 45 47 48
42 42 42 42 43 44 44 43 43 43 42 42 42 42 41 41 41 42 42 43 44 46
41 42 42 42 42 42 42 42 41 41 41 41 41 40 40 40 40 40 40 41 41 42
40 41 41 41 41 41 41 41 40 40 40 40 40 39 40 40 39 39 39 40 40 42
40 41 41 40 40 40 40 39 39 39 39 39 38 41 42 40 39 39 39 39 40 41
40 40 40 40 39 39 39 38 38 38 38 38 38 41 41 42 40 40 40 40 40 39
40 40 40 39 39 39 38 38 38 37 38 38 37 40 41 42 41 40 39 39 39 38
39 39 39 39 39 38 37 37 37 37 37 37 38 40 40 40 38 38 38 37 37 35
38 39 39 38 38 37 37 37 37 36 37 37 37 40 40 39 36 36 35 34 34 36
38 38 38 38 37 37 37 37 37 36 36 36 37 37 41 41 35 34 34 32 30 30

GFSNIL_sfc_dewp_078.txt.gz
Dewpoint
59 60 61 62 62 62 60 60 60 60 59 58 57 56 55 55 54 55 55 55 55 54
50 54 56 57 59 60 60 60 59 59 58 57 57 56 55 54 54 54 55 54 54 53
45 47 51 53 55 57 58 58 58 58 56 55 54 54 53 52 52 51 52 52 51 51
44 45 45 47 50 53 54 54 54 53 53 52 51 50 50 49 49 49 49 50 50 50
43 44 44 44 45 47 50 51 51 50 50 49 48 47 46 45 45 45 45 46 48 49
40 42 43 43 43 45 46 48 49 48 47 46 45 44 43 42 42 43 43 44 44 45
40 41 41 43 43 43 44 45 45 45 44 43 42 42 41 41 41 41 41 42 42 43
40 41 42 42 42 42 43 43 43 42 42 42 41 41 41 41 41 41 41 41 41 43
40 40 42 42 42 42 42 42 42 41 41 41 40 42 43 42 41 41 40 41 41 41
39 39 41 42 41 42 42 42 41 41 40 40 40 42 43 42 41 41 41 42 41 41
40 39 40 41 42 42 42 42 41 41 41 41 40 42 43 43 41 41 41 41 41 41
40 39 39 41 42 42 42 42 43 41 41 41 41 41 42 42 41 41 40 40 40 39
39 39 39 40 41 42 41 41 41 40 41 41 42 41 42 42 39 38 38 38 38 39
37 39 39 39 41 41 41 40 40 39 39 39 39 39 42 42 37 37 36 35 35 36

GFSNIL_sfc_dewp_081.txt.gz
Dewpoint
58 61 62 61 61 60 61 61 61 62 61 61 61 59 58 57 57 57 56 55 55 55
48 53 55 57 60 61 61 61 61 61 60 60 59 57 57 57 56 55 55 55 55 54
46 46 48 52 54 56 57 58 59 59 59 58 57 56 55 55 55 54 54 54 54 53
44 45 45 46 48 51 54 55 57 57 56 56 55 55 55 53 52 52 52 52 52 51
41 43 44 44 45 46 48 52 53 53 53 54 54 53 51 50 49 49 49 49 50 50
40 41 41 43 44 44 46 47 50 50 50 50 50 49 48 47 46 46 46 46 46 47
39 40 41 41 42 43 44 45 47 48 48 48 48 46 45 45 44 43 43 44 44 44
39 40 41 42 42 42 43 43 45 45 45 44 44 43 44 43 42 42 42 43 43 44
39 39 41 41 42 42 43 43 43 44 43 43 41 43 44 44 43 42 42 42 42 42
39 40 40 40 41 42 42 43 44 43 42 42 42 44 44 44 42 42 42 43 42 42
38 39 40 40 41 42 43 43 43 43 43 42 42 44 44 44 42 42 42 43 42 42
36 38 39 40 40 41 42 42 43 43 43 43 43 43 44 44 42 41 41 40 40 40
34 35 37 38 39 40 41 41 42 42 43 43 43 43 43 43 42 40 39 39 39 41
31 33 36 38 39 39 39 40 41 41 41 41 41 41 42 43 40 39 38 38 37 38

GFSNIL_sfc_dewp_084.txt.gz
Dewpoint
57 58 60 60 60 59 59 60 60 60 59 60 60 60 59 59 58 57 56 56 55 55
46 50 53 56 58 61 60 60 60 60 60 60 60 59 58 58 57 57 56 55 55 55
45 45 46 47 51 53 56 57 59 59 60 60 59 58 57 56 56 55 55 55 54 53
42 44 44 45 45 47 50 53 55 57 57 57 57 56 56 55 55 54 54 53 53 52
41 41 41 43 44 44 45 48 52 53 54 55 55 55 55 54 53 53 51 51 51 50
40 40 41 41 42 43 44 45 48 51 51 52 53 53 53 52 50 49 49 49 49 49
39 40 40 41 42 42 43 43 45 48 49 50 50 49 49 48 47 46 45 46 46 46
40 40 40 41 41 42 42 43 43 44 46 47 47 47 47 46 45 45 44 43 44 44
39 40 40 40 41 42 42 42 43 43 43 43 43 44 46 45 44 44 44 42 42 43
38 39 39 40 40 41 41 42 42 42 43 42 42 44 45 45 43 43 43 42 42 42
36 37 38 39 39 39 40 41 42 42 42 42 42 45 44 44 41 41 41 41 41 41
33 35 36 37 37 38 39 39 40 42 43 42 41 44 44 44 39 38 39 41 41 40
30 32 33 36 37 37 37 38 38 40 41 42 42 43 44 44 38 37 38 39 40 42
28 30 30 32 35 35 37 37 38 38 40 41 41 41 44 44 41 39 38 39 38 39

GFSNIL_sfc_dewp_087.txt.gz
Dewpoint
54 57 60 60 59 59 59 58 59 59 59 59 59 59 60 59 59 58 58 57 56 55
49 51 51 54 57 59 60 60 60 60 60 60 60 60 59 59 58 57 57 57 56 56
43 44 46 49 49 52 54 56 57 58 59 59 60 59 59 58 58 57 57 56 56 55
41 41 42 43 44 45 46 48 52 53 54 57 57 57 57 57 56 56 55 55 55 55
40 40 40 41 42 42 43 45 46 51 51 53 56 56 56 55 55 55 54 54 54 53
39 39 40 41 42 42 42 43 44 48 50 50 52 54 55 55 54 54 54 53 53 51
39 40 40 40 41 42 42 42 43 43 46 49 50 51 51 51 51 50 50 51 50 49
39 40 40 40 40 41 42 42 42 43 43 45 47 48 48 48 47 47 47 47 47 47
38 38 39 39 40 40 41 41 42 42 42 43 43 45 47 47 46 46 45 45 46 44
36 36 37 38 38 38 39 39 40 41 42 41 42 44 46 46 43 43 44 44 43 43
32 34 36 36 37 37 37 38 38 40 41 42 42 44 45 45 42 41 41 41 41 41
30 30 33 32 34 36 36 37 38 39 40 41 41 44 44 44 39 38 38 40 40 40
29 29 30 30 32 34 35 36 37 36 37 40 40 42 43 44 40 39 39 39 40 43
26 27 27 28 30 30 32 34 33 34 34 36 38 40 42 42 42 41 40 39 39 40

GFSNIL_sfc_dewp_090.txt.gz
Dewpoint
52 54 56 58 59 59 59 59 59 59 60 59 60 60 60 60 60 60 59 57 57 57
46 50 51 51 53 55 57 59 59 59 59 59 58 58 59 59 58 58 58 58 57 57
41 42 44 47 47 47 49 51 54 56 58 59 59 59 59 59 59 58 58 58 57 57
40 40 41 41 42 42 43 44 46 51 52 54 55 58 58 58 58 57 58 57 56 56
40 40 40 41 41 42 42 43 44 46 50 50 52 55 56 56 56 56 56 55 55 55
39 40 40 40 40 41 42 42 42 43 44 47 49 50 54 55 55 55 55 55 54 54
39 39 40 40 40 40 41 42 42 42 43 44 46 48 49 51 52 52 52 52 53 53
37 38 38 38 39 40 40 40 41 41 42 43 43 45 46 47 48 49 49 48 49 50
34 35 36 37 38 38 38 39 39 40 40 41 42 45 46 46 45 45 46 46 47 47
31 31 33 35 35 35 36 36 37 38 39 40 41 44 45 45 44 43 43 44 44 44
29 29 30 32 31 33 35 35 36 36 37 38 39 42 43 44 43 41 40 40 41 42
28 27 28 28 29 30 32 33 33 36 36 36 37 40 41 43 42 41 40 39 40 40
26 26 26 26 27 29 31 31 34 34 34 34 34 38 40 42 41 40 40 40 40 42
25 25 25 25 26 27 27 28 28 30 31 31 32 32 37 39 40 40 41 41 40 40

GFSNIL_sfc_dewp_093.txt.gz
Dewpoint
51 52 53 54 55 58 58 58 59 59 59 59 60 60 60 60 60 60 60 59 59 59
45 47 48 50 50 51 53 54 57 59 59 59 59 59 59 59 59 59 59 59 59 58
40 41 43 45 44 45 47 49 51 53 54 56 58 59 59 59 59 58 58 58 58 58
40 40 40 41 41 42 42 43 44 46 50 51 52 55 56 57 58 57 58 58 57 57
39 40 40 40 40 41 42 42 42 43 44 47 49 51 53 55 56 56 56 56 56 55
38 38 39 39 40 40 41 41 42 42 43 43 45 48 49 52 53 54 55 55 55 55
36 37 37 38 38 39 40 40 40 41 41 42 43 44 46 47 48 51 51 52 53 54
33 34 35 35 37 37 37 38 39 40 39 40 41 42 44 44 44 45 47 48 49 50
30 30 31 33 33 34 35 35 36 37 38 38 39 42 44 44 42 43 44 45 46 47
27 27 28 29 29 30 31 33 33 35 36 36 37 39 41 42 42 41 41 41 42 44
27 26 26 27 26 27 29 30 31 32 34 35 35 36 38 40 41 42 41 40 39 40
27 25 25 25 25 26 28 28 28 31 32 32 33 35 35 37 37 38 40 41 41 39
26 25 24 25 25 26 26 26 27 27 28 32 30 34 35 33 36 37 37 37 40 42
25 24 24 24 24 24 24 24 24 24 26 27 29 31 34 34 31 32 35 37 38 40

GFSNIL_sfc_dewp_096.txt.gz
Dewpoint
47 50 50 50 51 51 52 54 58 59 59 59 59 59 59 59 59 59 59 59 59 59
43 44 46 46 47 48 49 51 52 54 56 59 59 59 59 59 59 59 59 59 59 59
40 40 41 42 43 43 44 45 46 48 52 53 54 56 57 58 59 59 59 59 58 58
39 40 40 40 41 41 42 42 42 43 44 46 49 50 52 54 56 57 57 58 57 57
37 37 37 38 39 40 40 41 41 42 42 43 44 46 48 49 52 53 54 55 56 56
35 35 35 36 36 37 38 39 40 40 40 41 42 43 44 45 46 48 51 53 54 54
32 33 34 34 34 35 35 36 36 38 38 39 40 41 43 44 43 44 45 48 50 51
29 29 30 31 32 32 33 33 35 35 36 37 36 38 40 41 43 42 42 43 45 47
26 26 27 27 28 28 29 31 31 32 34 35 35 38 36 38 39 41 42 41 42 43
26 25 25 25 25 25 26 28 28 29 31 32 33 36 36 36 38 38 39 40 41 41
27 25 25 24 24 24 25 27 27 27 29 30 29 35 35 35 35 36 36 37 40 41
27 25 24 24 24 24 25 25 25 27 28 27 28 33 32 34 32 34 35 36 35 37
25 24 24 24 24 24 24 25 25 25 25 27 27 30 31 31 32 30 32 33 36 39
24 24 24 24 23 23 23 23 22 22 23 23 25 26 30 30 31 32 31 29 29 31

GFSNIL_sfc_dewp_099.txt.gz
Dewpoint
45 47 47 47 48 48 49 50 51 54 58 59 59 59 59 59 59 59 59 58 59 58
42 43 43 44 45 46 46 47 48 49 51 53 54 56 58 59 58 59 59 59 59 59
39 39 40 41 41 42 43 43 45 46 47 48 50 51 53 54 55 57 59 59 58 58
35 35 35 35 36 38 39 40 40 41 42 43 44 46 49 50 51 52 53 55 57 57
32 32 32 33 33 34 34 35 35 36 38 40 42 43 43 44 44 46 48 51 52 54
29 29 30 30 31 32 32 33 33 34 35 35 39 41 42 42 42 43 43 44 45 48
27 27 27 28 28 29 30 30 30 32 33 34 35 37 35 38 39 40 41 42 43 44
26 26 26 26 26 26 27 28 28 28 30 31 31 34 35 35 37 37 37 40 41 42
26 25 25 25 24 24 25 26 26 26 27 29 26 33 36 35 34 36 35 35 38 40
26 25 25 25 25 24 25 26 26 26 26 26 27 31 34 34 33 33 33 36 36 35
27 26 25 25 25 25 25 25 25 24 25 25 23 30 32 32 32 33 34 34 34 36
26 25 25 25 25 25 25 26 26 25 25 24 25 29 30 30 30 31 32 32 33 32
24 24 24 24 25 25 25 25 26 24 24 25 24 26 29 28 29 29 30 32 30 32
23 23 23 25 24 25 25 24 23 22 23 22 22 23 28 30 28 29 30 30 28 28

GFSNIL_sfc_dewp_102.txt.gz
Dewpoint
45 46 45 46 46 46 46 48 48 50 51 52 53 56 59 59 59 58 58 57 57 56
42 42 43 43 43 44 45 45 46 47 47 48 50 51 53 55 55 58 58 57 58 57
35 35 33 33 34 34 36 39 41 43 45 45 46 48 49 51 50 52 54 55 57 57
28 28 28 27 27 28 28 29 29 31 36 40 42 44 45 46 46 47 48 49 51 53
24 24 24 24 25 24 24 25 26 27 28 29 34 36 38 40 42 42 43 44 46 47
22 22 21 22 22 23 23 23 23 24 25 25 27 28 28 28 30 32 36 40 42 43
22 22 22 22 21 21 21 21 21 21 23 25 25 28 31 31 30 30 31 33 37 39
24 23 23 23 23 22 23 22 22 21 21 22 21 22 32 32 30 30 30 31 31 36
24 24 24 24 24 23 22 22 22 22 21 21 18 29 32 33 29 29 28 28 30 32
23 24 24 23 22 22 22 21 22 21 20 19 18 25 29 31 27 27 27 29 30 29
24 23 23 23 23 22 22 22 21 21 21 21 19 26 28 29 25 25 26 28 28 28
22 21 21 22 23 23 23 24 25 23 23 23 22 25 27 26 24 25 25 23 25 27
21 21 21 21 22 23 23 23 24 23 23 24 23 25 25 26 24 23 21 22 23 29
20 21 20 22 22 23 23 22 23 21 21 18 17 18 24 27 25 23 23 22 23 24

GFSNIL_sfc_dewp_105.txt.gz
Dewpoint
43 45 45 45 46 46 46 46 46 47 48 48 49 50 51 52 54 59 58 58 58 57
39 39 39 40 40 42 41 38 41 44 46 46 47 48 48 49 49 51 52 55 56 57
30 31 31 29 26 26 28 30 31 32 35 40 43 46 47 47 47 47 48 49 49 52
24 24 24 23 23 23 22 23 23 24 25 27 29 31 35 39 42 43 45 46 47 48
22 22 21 20 21 22 22 21 22 23 24 23 27 29 29 28 30 31 33 36 41 44
21 21 20 20 20 20 20 20 20 20 21 23 23 23 27 29 29 29 30 31 34 36
22 22 21 22 22 22 21 20 20 19 19 20 20 20 26 27 28 28 29 29 31 31
24 23 23 23 22 21 20 19 19 19 19 19 18 19 26 27 28 27 28 29 27 30
23 23 24 22 20 20 21 20 20 20 19 19 14 27 28 28 26 25 25 26 28 28
22 21 20 20 20 20 20 19 20 20 19 18 18 24 27 29 24 23 24 27 28 27
21 20 20 20 20 20 20 20 20 20 21 22 20 25 27 27 25 23 25 27 26 24
20 20 20 21 21 21 22 24 25 23 23 24 24 26 27 26 25 25 23 21 21 22
20 20 20 20 21 23 23 23 24 24 24 24 24 24 23 24 24 23 20 20 21 28
19 20 19 21 22 24 24 23 23 22 21 17 16 17 23 26 24 24 24 24 23 23

GFSNIL_sfc_dewp_108.txt.gz
Dewpoint
39 42 42 41 43 44 43 44 44 45 46 47 47 48 48 48 48 48 49 49 51 55
36 37 37 37 36 36 35 33 37 37 38 43 45 45 45 45 44 45 46 47 48 50
26 27 26 25 24 25 25 27 29 31 32 33 34 35 39 43 42 42 43 44 45 47
24 23 23 22 22 23 23 23 23 24 25 25 27 30 33 34 35 36 39 41 41 44
22 22 21 21 21 22 21 22 21 22 22 23 24 25 27 29 31 31 32 33 35 37
22 22 21 22 22 22 22 22 21 21 21 21 22 22 25 26 28 28 30 31 30 33
23 23 23 23 23 23 22 21 20 20 20 22 21 24 26 26 27 27 27 29 30 30
24 24 24 24 23 21 21 21 20 20 21 21 19 17 24 26 27 26 25 27 29 30
23 24 23 21 21 21 22 21 21 21 21 21 18 27 28 27 26 25 24 24 27 29
22 22 21 21 21 21 20 20 21 21 22 21 21 27 28 28 24 25 24 25 26 26
23 22 22 22 22 21 21 21 22 23 23 23 23 28 28 29 26 25 25 26 25 25
23 22 22 22 22 22 23 23 24 24 24 24 24 28 27 25 24 25 24 22 21 22
22 22 21 21 21 22 23 24 25 24 24 26 24 27 24 23 24 24 24 24 25 28
21 20 20 20 21 22 23 22 22 22 21 18 18 19 25 26 23 24 24 24 24 24

GFSNIL_sfc_dewp_111.txt.gz
Dewpoint
37 39 39 39 39 38 39 40 40 38 40 41 44 46 46 45 44 45 46 45 45 46
33 32 35 33 34 36 34 29 33 35 34 35 36 38 40 43 42 43 44 44 44 45
24 24 24 24 23 23 24 27 28 30 31 32 32 33 37 37 39 38 42 42 41 42
23 22 21 21 21 22 22 22 22 22 23 24 25 27 30 31 32 33 34 35 36 36
22 22 21 22 22 23 22 22 22 21 21 21 22 24 26 26 28 28 29 31 33 32
23 22 22 23 23 23 22 21 20 20 21 21 22 23 25 26 26 26 26 27 28 30
23 24 23 24 23 22 21 21 21 20 21 22 21 21 24 25 26 26 25 25 26 28
23 23 23 22 21 21 22 21 21 21 22 22 21 19 25 25 26 26 25 25 25 27
23 22 22 21 21 21 21 21 21 21 22 23 21 28 29 28 26 26 25 24 25 25
22 21 22 21 21 21 20 21 21 22 23 23 23 28 29 29 25 26 25 25 26 24
23 22 22 22 21 21 21 22 22 23 24 24 23 28 29 29 25 25 25 26 25 23
23 22 22 21 21 21 21 22 23 24 24 24 23 28 26 25 23 24 24 24 25 25
22 21 20 20 20 21 21 22 24 23 23 24 21 25 26 26 24 23 23 24 25 28
20 20 20 19 19 20 21 21 20 20 19 18 20 22 27 28 24 23 24 24 23 24

GFSNIL_sfc_dewp_114.txt.gz
Dewpoint
34 37 38 38 39 37 37 37 36 36 37 37 37 39 42 43 42 42 42 43 42 44
29 28 30 30 31 32 32 27 32 34 33 34 33 35 37 38 40 41 42 43 42 41
23 23 22 22 22 22 23 25 26 26 27 28 29 31 32 32 33 33 36 37 37 37
22 22 22 22 22 23 22 22 21 21 21 22 22 25 27 28 29 29 29 31 32 33
22 22 22 22 23 23 21 21 20 21 21 21 22 22 25 26 27 27 26 26 28 28
23 23 23 23 23 22 21 21 21 20 21 22 22 21 24 25 26 26 26 26 25 26
23 23 23 23 21 21 21 21 21 21 21 22 22 21 22 24 25 26 26 26 26 26
23 23 22 21 21 21 21 21 21 21 22 23 22 21 26 26 26 25 26 26 25 26
23 22 21 21 21 21 21 21 21 22 23 23 21 27 29 28 26 26 25 24 25 26
22 21 21 21 21 21 20 21 21 22 23 22 23 28 29 28 25 25 24 25 25 24
22 21 22 21 21 20 20 20 21 22 23 23 22 28 27 27 23 23 24 25 25 24
22 21 21 20 20 20 20 21 21 23 22 21 22 26 27 27 24 24 24 24 24 26
22 20 19 19 19 20 20 21 23 22 21 21 19 26 26 26 25 24 23 24 25 27
20 19 19 19 19 19 20 20 19 19 18 18 21 22 26 27 24 23 24 24 23 24

GFSNIL_sfc_dewp_117.txt.gz
Dewpoint
31 34 34 33 35 35 35 35 34 34 34 34 34 37 38 41 40 42 42 41 41 41
26 26 26 25 26 27 27 25 28 28 29 29 29 32 32 35 32 35 36 39 38 37
22 22 22 22 22 22 22 23 24 24 25 25 26 28 29 30 30 29 31 32 33 34
21 22 22 22 23 22 21 21 20 21 21 21 22 23 26 27 28 27 27 28 29 29
22 22 22 23 23 22 20 21 21 20 21 21 22 22 24 24 26 26 26 26 27 27
23 23 23 23 22 20 20 21 21 21 21 22 23 21 21 23 25 26 25 26 25 25
22 23 23 22 20 20 21 20 20 21 22 23 23 22 23 26 26 25 25 26 26 26
22 23 22 20 20 21 21 20 21 21 22 23 22 21 26 27 26 26 25 25 25 26
23 23 21 20 20 20 20 20 21 21 22 22 21 27 29 28 25 25 25 23 25 25
23 22 21 20 20 20 19 20 20 21 22 22 22 27 27 28 23 23 23 25 25 25
23 21 21 20 19 19 19 19 20 21 22 21 20 26 27 28 24 24 24 25 24 24
23 21 20 19 19 19 19 19 20 22 21 20 21 26 27 27 25 25 24 24 24 25
22 20 19 18 19 19 19 20 22 21 20 21 20 25 27 26 25 24 23 23 25 27
20 20 19 19 18 19 20 20 19 19 19 18 20 23 27 28 24 23 23 24 24 24